,,Stat1,,Stat2,,Stat3,,Stat4,,Wind1,,Wind1,
time,status,PR1M_SUM,status,RH1M_AVG,status,SR1M_AVG,status,TA1M_AVG,status,W1dAve1m,status,W1sAve1m,
2000-02-26, 00:01:00,VALID,0,VALID,91.7119,VALID,-0.0509425,VALID,18.7695,VALID,165,VALID,0.579564,
2000-02-26, 00:02:00,VALID,0,VALID,91.834,VALID,-0.0509425,VALID,18.769,VALID,180,VALID,0.475084,
2000-02-26, 00:03:00,VALID,0,VALID,91.7641,VALID,-0.0169808,VALID,18.7762,VALID,195,VALID,0.471628,
2000-02-26, 00:04:00,VALID,0,VALID,91.113,VALID,-0.0339617,VALID,18.773,VALID,212,VALID,0.748733,
2000-02-26, 00:05:00,VALID,0,VALID,90.8142,VALID,-0.0509425,VALID,18.7822,VALID,207,VALID,0.429087,
2000-02-26, 00:06:00,VALID,0,VALID,90.364,VALID,-0.0339617,VALID,18.8177,VALID,221,VALID,0.86287,
2000-02-26, 00:07:00,VALID,0,VALID,89.6748,VALID,-0.0339617,VALID,18.8565,VALID,224,VALID,1.05128,
2000-02-26, 00:08:00,VALID,0,VALID,88.5558,VALID,-0.0339617,VALID,18.895,VALID,216,VALID,1.51663,
2000-02-26, 00:09:00,VALID,0,VALID,87.4203,VALID,-0.0339617,VALID,18.9755,VALID,208,VALID,1.15284,
2000-02-26, 00:10:00,VALID,0,VALID,87.1876,VALID,-0.0169808,VALID,19.059,VALID,217,VALID,1.1366,
2000-02-26, 00:11:00,VALID,0,VALID,87.6517,VALID,0.0169808,VALID,19.1305,VALID,218,VALID,0.950738,
2000-02-26, 00:12:00,VALID,0,VALID,88.304,VALID,0,VALID,19.1698,VALID,225,VALID,1.03285,
2000-02-26, 00:13:00,VALID,0,VALID,89.2196,VALID,0.0339617,VALID,19.1432,VALID,234,VALID,0.941301,
2000-02-26, 00:14:00,VALID,0,VALID,90.2445,VALID,0,VALID,19.1044,VALID,238,VALID,1.04238,
2000-02-26, 00:15:00,VALID,0,VALID,91.3826,VALID,0,VALID,19.0505,VALID,233,VALID,0.610026,
2000-02-26, 00:16:00,VALID,0,VALID,92.4024,VALID,-0.0169808,VALID,18.9593,VALID,238,VALID,0.812294,
2000-02-26, 00:17:00,VALID,0,VALID,92.8411,VALID,-0.0169808,VALID,18.8788,VALID,239,VALID,0.970982,
2000-02-26, 00:18:00,VALID,0,VALID,93.1018,VALID,-0.0169808,VALID,18.8274,VALID,230,VALID,1.17422,
2000-02-26, 00:19:00,VALID,0,VALID,92.8119,VALID,0,VALID,18.7852,VALID,232,VALID,1.25965,
2000-02-26, 00:20:00,VALID,0,VALID,92.4991,VALID,0,VALID,18.7663,VALID,230,VALID,1.17643,
2000-02-26, 00:21:00,VALID,0,VALID,91.8849,VALID,0,VALID,18.7626,VALID,226,VALID,1.04153,
2000-02-26, 00:22:00,VALID,0,VALID,91.6852,VALID,0,VALID,18.7917,VALID,213,VALID,0.994191,
2000-02-26, 00:23:00,VALID,0,VALID,91.5441,VALID,-0.0169808,VALID,18.8145,VALID,221,VALID,1.17708,
2000-02-26, 00:24:00,VALID,0,VALID,90.6934,VALID,0,VALID,18.8304,VALID,224,VALID,1.26499,
2000-02-26, 00:25:00,VALID,0,VALID,89.6392,VALID,-0.0169808,VALID,18.8858,VALID,232,VALID,1.14082,
2000-02-26, 00:26:00,VALID,0,VALID,89.1802,VALID,0,VALID,18.9467,VALID,222,VALID,1.29507,
2000-02-26, 00:27:00,VALID,0,VALID,88.8089,VALID,0,VALID,19.0018,VALID,224,VALID,1.32893,
2000-02-26, 00:28:00,VALID,0,VALID,88.5736,VALID,0,VALID,19.0339,VALID,225,VALID,1.29366,
2000-02-26, 00:29:00,VALID,0,VALID,88.697,VALID,0,VALID,19.0761,VALID,226,VALID,1.0931,
2000-02-26, 00:30:01,VALID,0,VALID,88.8826,VALID,0,VALID,19.0791,VALID,218,VALID,1.1174,
2000-02-26, 00:31:01,VALID,0,VALID,89.3366,VALID,0,VALID,19.0696,VALID,210,VALID,0.956731,
2000-02-26, 00:32:00,VALID,0,VALID,89.9571,VALID,0.0169808,VALID,19.0433,VALID,213,VALID,0.913462,
2000-02-26, 00:33:00,VALID,0,VALID,90.2712,VALID,0,VALID,19.0117,VALID,212,VALID,1.15921,
2000-02-26, 00:34:00,VALID,0,VALID,90.2432,VALID,0,VALID,18.9568,VALID,203,VALID,0.902644,
2000-02-26, 00:35:00,VALID,0,VALID,89.8338,VALID,0.0169808,VALID,18.9141,VALID,207,VALID,1.05078,
2000-02-26, 00:36:00,VALID,0,VALID,89.9406,VALID,0.0339617,VALID,18.9047,VALID,203,VALID,0.684295,
2000-02-26, 00:37:00,VALID,0,VALID,90.0156,VALID,0.0169808,VALID,18.8848,VALID,212,VALID,1.10701,
2000-02-26, 00:38:00,VALID,0,VALID,90.0054,VALID,-0.0169808,VALID,18.8696,VALID,201,VALID,0.979818,
2000-02-26, 00:39:00,VALID,0,VALID,89.9075,VALID,0,VALID,18.8599,VALID,204,VALID,1.10938,
2000-02-26, 00:40:00,VALID,0,VALID,89.9762,VALID,-0.0169808,VALID,18.8369,VALID,206,VALID,0.944046,
2000-02-26, 00:41:00,VALID,0,VALID,90.1008,VALID,0,VALID,18.8406,VALID,199,VALID,0.981836,
2000-02-26, 00:42:00,VALID,0,VALID,90.1631,VALID,0,VALID,18.8145,VALID,209,VALID,0.794054,
2000-02-26, 00:43:00,VALID,0,VALID,89.9495,VALID,-0.0169808,VALID,18.7986,VALID,200,VALID,0.659951,
2000-02-26, 00:44:00,VALID,0,VALID,90.0754,VALID,-0.0169808,VALID,18.7919,VALID,210,VALID,0.61875,
2000-02-26, 00:45:00,VALID,0,VALID,89.6151,VALID,-0.0339617,VALID,18.7958,VALID,200,VALID,0.732227,
2000-02-26, 00:46:00,VALID,0,VALID,90.0054,VALID,-0.0169808,VALID,18.7954,VALID,199,VALID,0.192785,
2000-02-26, 00:47:00,VALID,0,VALID,89.8783,VALID,-0.0169808,VALID,18.7887,VALID,182,VALID,0.437066,
2000-02-26, 00:48:00,VALID,0,VALID,90.4391,VALID,0,VALID,18.775,VALID,177,VALID,0,
2000-02-26, 00:49:00,VALID,0,VALID,90.9477,VALID,0,VALID,18.7596,VALID,184,VALID,0,
2000-02-26, 00:50:00,VALID,0,VALID,91.4068,VALID,0,VALID,18.7305,VALID,184,VALID,0,
2000-02-26, 00:51:00,VALID,0,VALID,91.478,VALID,-0.0169808,VALID,18.6789,VALID,184,VALID,0,
2000-02-26, 00:52:01,VALID,0,VALID,91.8137,VALID,0,VALID,18.653,VALID,176,VALID,0,
2000-02-26, 00:53:00,VALID,0,VALID,91.6712,VALID,0,VALID,18.6083,VALID,87,VALID,0,
2000-02-26, 00:54:00,VALID,0,VALID,91.4029,VALID,0.0169808,VALID,18.5887,VALID,80,VALID,0,
2000-02-26, 00:55:00,VALID,0,VALID,91.2287,VALID,0,VALID,18.5887,VALID,78,VALID,0,
2000-02-26, 00:56:00,VALID,0,VALID,91.1779,VALID,0.0169808,VALID,18.5827,VALID,78,VALID,0,
2000-02-26, 00:57:00,VALID,0,VALID,91.1232,VALID,0.0169808,VALID,18.5725,VALID,81,VALID,0,
2000-02-26, 00:58:00,VALID,0,VALID,91.0354,VALID,0,VALID,18.5728,VALID,81,VALID,0,
2000-02-26, 00:59:00,VALID,0,VALID,91.0838,VALID,0,VALID,18.5981,VALID,82,VALID,0,
2000-02-26, 01:00:00,VALID,0,VALID,91.1168,VALID,-0.0169808,VALID,18.6145,VALID,120,VALID,0,
2000-02-26, 01:01:00,VALID,0,VALID,91.4156,VALID,0,VALID,18.6242,VALID,119,VALID,0,
2000-02-26, 01:02:00,VALID,0,VALID,91.5275,VALID,0,VALID,18.6175,VALID,119,VALID,0,
2000-02-26, 01:03:00,VALID,0,VALID,91.5339,VALID,0,VALID,18.5981,VALID,119,VALID,0,
2000-02-26, 01:04:00,VALID,0,VALID,91.4703,VALID,0,VALID,18.5891,VALID,119,VALID,0,
2000-02-26, 01:05:00,VALID,0,VALID,91.347,VALID,-0.0169808,VALID,18.5728,VALID,120,VALID,0,
2000-02-26, 01:06:00,VALID,0,VALID,91.492,VALID,-0.0169808,VALID,18.5695,VALID,120,VALID,0,
2000-02-26, 01:07:00,VALID,0,VALID,91.8772,VALID,-0.0339617,VALID,18.5569,VALID,107,VALID,0,
2000-02-26, 01:08:00,VALID,0,VALID,92.2524,VALID,-0.0169808,VALID,18.4819,VALID,105,VALID,0,
2000-02-26, 01:09:00,VALID,0,VALID,92.6402,VALID,-0.0169808,VALID,18.4175,VALID,119,VALID,0,
2000-02-26, 01:10:00,VALID,0,VALID,92.5868,VALID,-0.0169808,VALID,18.3726,VALID,134,VALID,0.227179,
2000-02-26, 01:11:00,VALID,0,VALID,92.3566,VALID,0.0169808,VALID,18.3559,VALID,158,VALID,0.690625,
2000-02-26, 01:12:00,VALID,0,VALID,92.2664,VALID,0.0169808,VALID,18.3753,VALID,183,VALID,0.698828,
2000-02-26, 01:13:00,VALID,0,VALID,92.321,VALID,0,VALID,18.3919,VALID,178,VALID,0.668658,
2000-02-26, 01:14:00,VALID,0,VALID,92.7305,VALID,0,VALID,18.3822,VALID,166,VALID,0.665582,
2000-02-26, 01:15:01,VALID,0,VALID,92.85,VALID,0,VALID,18.3174,VALID,163,VALID,0.825863,
2000-02-26, 01:16:00,VALID,0,VALID,92.7038,VALID,0.0169808,VALID,18.2948,VALID,168,VALID,0.883013,
2000-02-26, 01:17:00,VALID,0,VALID,92.3401,VALID,0,VALID,18.3177,VALID,173,VALID,0.960737,
2000-02-26, 01:18:00,VALID,0,VALID,91.9968,VALID,0,VALID,18.3661,VALID,167,VALID,0.943623,
2000-02-26, 01:19:00,VALID,0,VALID,92.1036,VALID,0,VALID,18.4205,VALID,161,VALID,0.657812,
2000-02-26, 01:20:00,VALID,0,VALID,92.0731,VALID,0,VALID,18.4371,VALID,160,VALID,0.733774,
2000-02-26, 01:21:00,VALID,0,VALID,92.3312,VALID,0.0169808,VALID,18.4304,VALID,152,VALID,0.66226,
2000-02-26, 01:22:00,VALID,0,VALID,92.8971,VALID,0,VALID,18.3696,VALID,140,VALID,0.628676,
2000-02-26, 01:23:00,VALID,0,VALID,93.084,VALID,0,VALID,18.2886,VALID,143,VALID,0.924696,
2000-02-26, 01:24:00,VALID,0,VALID,92.733,VALID,0.0169808,VALID,18.2628,VALID,157,VALID,0.963542,
2000-02-26, 01:25:00,VALID,0,VALID,92.4037,VALID,-0.0339617,VALID,18.2948,VALID,175,VALID,1.01663,
2000-02-26, 01:26:00,VALID,0,VALID,91.9879,VALID,-0.101885,VALID,18.3476,VALID,183,VALID,1.06991,
2000-02-26, 01:27:00,VALID,0,VALID,91.6789,VALID,-0.0509425,VALID,18.4127,VALID,176,VALID,0.963471,
2000-02-26, 01:28:00,VALID,0,VALID,92.1049,VALID,-0.0849042,VALID,18.4286,VALID,131,VALID,0.65024,
2000-02-26, 01:29:00,VALID,0,VALID,91.8607,VALID,-0.0849042,VALID,18.3836,VALID,172,VALID,0.886924,
2000-02-26, 01:30:00,VALID,0,VALID,91.5072,VALID,-0.0679233,VALID,18.3834,VALID,169,VALID,0.959335,
2000-02-26, 01:31:00,VALID,0,VALID,91.9612,VALID,-0.0849042,VALID,18.4258,VALID,158,VALID,0.821259,
2000-02-26, 01:32:00,VALID,0,VALID,91.7844,VALID,-0.0679233,VALID,18.3836,VALID,159,VALID,0.975043,
2000-02-26, 01:33:00,VALID,0,VALID,91.492,VALID,-0.0849042,VALID,18.3804,VALID,167,VALID,0.944111,
2000-02-26, 01:34:00,VALID,0,VALID,91.0672,VALID,-0.0849042,VALID,18.4062,VALID,172,VALID,0.927998,
2000-02-26, 01:35:00,VALID,0,VALID,90.9655,VALID,-0.0849042,VALID,18.4251,VALID,170,VALID,0.904102,
2000-02-26, 01:36:00,VALID,0,VALID,91.1868,VALID,-0.0679233,VALID,18.4189,VALID,172,VALID,0.783854,
2000-02-26, 01:37:01,VALID,0,VALID,91.3533,VALID,-0.0849042,VALID,18.3931,VALID,178,VALID,0.694696,
2000-02-26, 01:38:00,VALID,0,VALID,91.7933,VALID,-0.0849042,VALID,18.3742,VALID,172,VALID,0.746205,
2000-02-26, 01:39:00,VALID,0,VALID,91.4258,VALID,-0.0849042,VALID,18.3352,VALID,180,VALID,0.714648,
2000-02-26, 01:40:00,VALID,0,VALID,91.6484,VALID,-0.0679233,VALID,18.3417,VALID,194,VALID,0.884651,
2000-02-26, 01:41:00,VALID,0,VALID,92.1087,VALID,0,VALID,18.3147,VALID,193,VALID,0.503472,
2000-02-26, 01:42:00,VALID,0,VALID,92.4342,VALID,0,VALID,18.2821,VALID,195,VALID,0.774877,
2000-02-26, 01:43:00,VALID,0,VALID,92.892,VALID,0.0169808,VALID,18.2404,VALID,214,VALID,0.653245,
2000-02-26, 01:44:00,VALID,0,VALID,93.3917,VALID,-0.0169808,VALID,18.1857,VALID,214,VALID,0.915865,
2000-02-26, 01:45:00,VALID,0,VALID,93.5265,VALID,0,VALID,18.1468,VALID,221,VALID,1.20165,
2000-02-26, 01:46:00,VALID,0,VALID,94.0924,VALID,0.0339617,VALID,18.15,VALID,225,VALID,1.18809,
2000-02-26, 01:47:00,VALID,0,VALID,94.484,VALID,0,VALID,18.1465,VALID,218,VALID,1.29667,
2000-02-26, 01:48:01,VALID,0,VALID,94.6722,VALID,0,VALID,18.1405,VALID,218,VALID,1.499,
2000-02-26, 01:49:00,VALID,0,VALID,94.4446,VALID,0,VALID,18.1242,VALID,217,VALID,1.31733,
2000-02-26, 01:50:00,VALID,0,VALID,94.0746,VALID,0,VALID,18.1076,VALID,215,VALID,1.30903,
2000-02-26, 01:51:00,VALID,0,VALID,93.866,VALID,0.0169808,VALID,18.1179,VALID,216,VALID,1.02648,
2000-02-26, 01:52:00,VALID,0,VALID,93.482,VALID,0.0339617,VALID,18.1281,VALID,214,VALID,1.13021,
2000-02-26, 01:53:00,VALID,0,VALID,93.215,VALID,0,VALID,18.1474,VALID,213,VALID,1.20192,
2000-02-26, 01:54:00,VALID,0,VALID,92.8627,VALID,-0.0339617,VALID,18.1599,VALID,214,VALID,1.25739,
2000-02-26, 01:55:00,VALID,0,VALID,92.1926,VALID,0.0169808,VALID,18.1827,VALID,212,VALID,1.07552,
2000-02-26, 01:56:00,VALID,0,VALID,92.5766,VALID,0,VALID,18.2047,VALID,203,VALID,0.885896,
2000-02-26, 01:57:00,VALID,0,VALID,92.4965,VALID,0.0339617,VALID,18.2012,VALID,206,VALID,0.750601,
2000-02-26, 01:58:00,VALID,0,VALID,92.1799,VALID,0.0169808,VALID,18.1781,VALID,205,VALID,0.876894,
2000-02-26, 01:59:01,VALID,0,VALID,91.6598,VALID,0.0339617,VALID,18.182,VALID,208,VALID,0.999132,
2000-02-26, 02:00:00,VALID,0,VALID,90.3831,VALID,0.0509425,VALID,18.1818,VALID,211,VALID,1.11238,
2000-02-26, 02:01:00,VALID,0,VALID,90.3844,VALID,0.0679233,VALID,18.2305,VALID,214,VALID,1.2462,
2000-02-26, 02:02:00,VALID,0,VALID,90.2025,VALID,0.0339617,VALID,18.2559,VALID,207,VALID,1.04668,
2000-02-26, 02:03:00,VALID,0,VALID,90.0042,VALID,0,VALID,18.2559,VALID,206,VALID,0.890625,
2000-02-26, 02:04:00,VALID,0,VALID,89.9597,VALID,0.0169808,VALID,18.2789,VALID,208,VALID,1.059,
2000-02-26, 02:05:00,VALID,0,VALID,89.7231,VALID,0.0169808,VALID,18.2817,VALID,213,VALID,1.35759,
2000-02-26, 02:06:00,VALID,0,VALID,89.0594,VALID,0,VALID,18.2821,VALID,216,VALID,1.45762,
2000-02-26, 02:07:00,VALID,0,VALID,89.5171,VALID,0.0169808,VALID,18.2854,VALID,213,VALID,1.19945,
2000-02-26, 02:08:00,VALID,0,VALID,89.7066,VALID,0.0509425,VALID,18.2623,VALID,212,VALID,1.05599,
2000-02-26, 02:09:01,VALID,0,VALID,89.1586,VALID,0.0509425,VALID,18.2432,VALID,207,VALID,1.20806,
2000-02-26, 02:10:01,VALID,0,VALID,88.6995,VALID,-0.0169808,VALID,18.2441,VALID,207,VALID,1.38281,
2000-02-26, 02:11:00,VALID,0,VALID,87.9251,VALID,-0.0679233,VALID,18.2445,VALID,196,VALID,1.23077,
2000-02-26, 02:12:00,VALID,0,VALID,87.3987,VALID,-0.0679233,VALID,18.2674,VALID,191,VALID,1.30659,
2000-02-26, 02:13:00,VALID,0,VALID,86.7107,VALID,-0.0679233,VALID,18.2701,VALID,192,VALID,1.41484,
2000-02-26, 02:14:00,VALID,0,VALID,86.333,VALID,-0.0679233,VALID,18.3029,VALID,191,VALID,1.38862,
2000-02-26, 02:15:00,VALID,0,VALID,85.654,VALID,-0.0849042,VALID,18.319,VALID,190,VALID,1.67628,
2000-02-26, 02:16:00,VALID,0,VALID,85.8943,VALID,-0.0679233,VALID,18.3573,VALID,187,VALID,1.45175,
2000-02-26, 02:17:00,VALID,0,VALID,85.6985,VALID,-0.0679233,VALID,18.3966,VALID,185,VALID,1.3878,
2000-02-26, 02:18:00,VALID,0,VALID,86.0508,VALID,-0.0849042,VALID,18.4032,VALID,188,VALID,1.26237,
2000-02-26, 02:19:00,VALID,0,VALID,86.0889,VALID,-0.0679233,VALID,18.3903,VALID,191,VALID,1.28125,
2000-02-26, 02:20:00,VALID,0,VALID,86.1334,VALID,-0.101885,VALID,18.3936,VALID,195,VALID,1.30909,
2000-02-26, 02:21:00,VALID,0,VALID,86.6052,VALID,-0.0849042,VALID,18.4095,VALID,205,VALID,0.902027,
2000-02-26, 02:22:00,VALID,0,VALID,86.9879,VALID,-0.101885,VALID,18.4032,VALID,201,VALID,0.631811,
2000-02-26, 02:23:00,VALID,0,VALID,86.7082,VALID,-0.0339617,VALID,18.3735,VALID,197,VALID,1.02056,
2000-02-26, 02:24:00,VALID,0,VALID,87.0833,VALID,-0.0849042,VALID,18.3541,VALID,198,VALID,0.903846,
2000-02-26, 02:25:00,VALID,0,VALID,87.1977,VALID,-0.101885,VALID,18.3421,VALID,194,VALID,0.985795,
2000-02-26, 02:26:00,VALID,0,VALID,87.4902,VALID,-0.0849042,VALID,18.316,VALID,195,VALID,1.07726,
2000-02-26, 02:27:00,VALID,0,VALID,87.7382,VALID,-0.0679233,VALID,18.2865,VALID,201,VALID,0.725561,
2000-02-26, 02:28:00,VALID,0,VALID,87.4648,VALID,-0.0679233,VALID,18.2642,VALID,193,VALID,0.952703,
2000-02-26, 02:29:00,VALID,0,VALID,87.8424,VALID,-0.118866,VALID,18.2678,VALID,192,VALID,1.11113,
2000-02-26, 02:30:00,VALID,0,VALID,88.2303,VALID,-0.0849042,VALID,18.2383,VALID,197,VALID,0.93533,
2000-02-26, 02:31:01,VALID,0,VALID,87.2639,VALID,-0.118866,VALID,18.2187,VALID,186,VALID,1.20271,
2000-02-26, 02:32:00,VALID,0,VALID,87.5029,VALID,-0.0849042,VALID,18.242,VALID,191,VALID,0.972321,
2000-02-26, 02:33:00,VALID,0,VALID,87.6898,VALID,-0.0679233,VALID,18.2415,VALID,195,VALID,0.887695,
2000-02-26, 02:34:00,VALID,0,VALID,87.6021,VALID,-0.0679233,VALID,18.2189,VALID,210,VALID,0.913603,
2000-02-26, 02:35:00,VALID,0,VALID,88.1845,VALID,-0.101885,VALID,18.2157,VALID,215,VALID,0.845703,
2000-02-26, 02:36:00,VALID,0,VALID,88.1934,VALID,-0.0509425,VALID,18.1862,VALID,198,VALID,1.15995,
2000-02-26, 02:37:00,VALID,0,VALID,89.1128,VALID,-0.101885,VALID,18.1705,VALID,208,VALID,0.810096,
2000-02-26, 02:38:00,VALID,0,VALID,89.0721,VALID,-0.0849042,VALID,18.1449,VALID,185,VALID,0.961939,
2000-02-26, 02:39:00,VALID,0,VALID,89.1471,VALID,-0.0679233,VALID,18.1258,VALID,177,VALID,1.03041,
2000-02-26, 02:40:00,VALID,0,VALID,88.8966,VALID,-0.0339617,VALID,18.0997,VALID,176,VALID,1.23281,
2000-02-26, 02:41:00,VALID,0,VALID,88.182,VALID,0.0169808,VALID,18.0919,VALID,187,VALID,1.41066,
2000-02-26, 02:42:00,VALID,0,VALID,87.4292,VALID,0,VALID,18.1405,VALID,179,VALID,1.01322,
2000-02-26, 02:43:00,VALID,0,VALID,87.4393,VALID,0.0339617,VALID,18.1984,VALID,178,VALID,0.886719,
2000-02-26, 02:44:00,VALID,0,VALID,87.2054,VALID,0.0339617,VALID,18.195,VALID,182,VALID,1.05881,
2000-02-26, 02:45:00,VALID,0,VALID,86.4513,VALID,0,VALID,18.185,VALID,184,VALID,1.05273,
2000-02-26, 02:46:00,VALID,0,VALID,86.7222,VALID,0.0169808,VALID,18.2141,VALID,179,VALID,0.932692,
2000-02-26, 02:47:00,VALID,0,VALID,85.7507,VALID,0.0169808,VALID,18.2176,VALID,192,VALID,1.06751,
2000-02-26, 02:48:00,VALID,0,VALID,86.4157,VALID,0.0509425,VALID,18.2372,VALID,177,VALID,1.04582,
2000-02-26, 02:49:00,VALID,0,VALID,85.2395,VALID,0.0169808,VALID,18.2372,VALID,183,VALID,1.29147,
2000-02-26, 02:50:00,VALID,0,VALID,84.6393,VALID,0.0339617,VALID,18.2494,VALID,184,VALID,1.28577,
2000-02-26, 02:51:00,VALID,0,VALID,84.3913,VALID,0.0339617,VALID,18.2752,VALID,187,VALID,1.28145,
2000-02-26, 02:52:00,VALID,0,VALID,84.6761,VALID,0,VALID,18.3181,VALID,192,VALID,1.3563,
2000-02-26, 02:53:01,VALID,0,VALID,85.1721,VALID,0,VALID,18.2918,VALID,204,VALID,1.41233,
2000-02-26, 02:54:00,VALID,0,VALID,84.7257,VALID,0.0339617,VALID,18.2725,VALID,198,VALID,1.20673,
2000-02-26, 02:55:00,VALID,0,VALID,85.0169,VALID,0.0509425,VALID,18.2727,VALID,197,VALID,1.0416,
2000-02-26, 02:56:00,VALID,0,VALID,85.0424,VALID,-0.0339617,VALID,18.2701,VALID,192,VALID,1.21973,
2000-02-26, 02:57:00,VALID,0,VALID,84.7613,VALID,-0.0509425,VALID,18.2731,VALID,199,VALID,1.19227,
2000-02-26, 02:58:00,VALID,0,VALID,85.2484,VALID,-0.0679233,VALID,18.2863,VALID,206,VALID,1.13651,
2000-02-26, 02:59:00,VALID,0,VALID,84.8198,VALID,-0.0509425,VALID,18.2863,VALID,204,VALID,1.25022,
2000-02-26, 03:00:00,VALID,0,VALID,84.4485,VALID,-0.0169808,VALID,18.3121,VALID,202,VALID,1.21973,
2000-02-26, 03:01:00,VALID,0,VALID,84.2565,VALID,-0.0169808,VALID,18.3414,VALID,202,VALID,1.57353,
2000-02-26, 03:02:00,VALID,0,VALID,84.624,VALID,-0.0339617,VALID,18.367,VALID,208,VALID,1.48785,
2000-02-26, 03:03:00,VALID,0,VALID,84.6558,VALID,-0.0339617,VALID,18.3705,VALID,211,VALID,1.60732,
2000-02-26, 03:04:00,VALID,0,VALID,84.7474,VALID,-0.0849042,VALID,18.3797,VALID,220,VALID,1.43049,
2000-02-26, 03:05:00,VALID,0,VALID,85.2128,VALID,-0.0849042,VALID,18.3998,VALID,212,VALID,1.00821,
2000-02-26, 03:06:00,VALID,0,VALID,85.4696,VALID,-0.0509425,VALID,18.3931,VALID,212,VALID,1.08868,
2000-02-26, 03:07:00,VALID,0,VALID,85.3971,VALID,-0.0679233,VALID,18.3444,VALID,204,VALID,1.29492,
2000-02-26, 03:08:00,VALID,0,VALID,85.2585,VALID,-0.0509425,VALID,18.3054,VALID,203,VALID,1.33313,
2000-02-26, 03:09:00,VALID,0,VALID,84.6151,VALID,-0.0169808,VALID,18.2796,VALID,212,VALID,1.5014,
2000-02-26, 03:10:00,VALID,0,VALID,83.8458,VALID,-0.0169808,VALID,18.3094,VALID,214,VALID,2.30492,
2000-02-26, 03:11:00,VALID,0,VALID,83.2621,VALID,-0.0169808,VALID,18.3539,VALID,217,VALID,2.28776,
2000-02-26, 03:12:00,VALID,0,VALID,82.8018,VALID,-0.0849042,VALID,18.4023,VALID,217,VALID,2.06076,
2000-02-26, 03:13:00,VALID,0,VALID,82.5869,VALID,-0.0339617,VALID,18.4609,VALID,219,VALID,2.28666,
2000-02-26, 03:14:00,VALID,0,VALID,82.7789,VALID,-0.0679233,VALID,18.48,VALID,214,VALID,1.8103,
2000-02-26, 03:15:00,VALID,0,VALID,83.238,VALID,-0.0339617,VALID,18.4768,VALID,212,VALID,1.49747,
2000-02-26, 03:16:00,VALID,0,VALID,83.3931,VALID,-0.0509425,VALID,18.4284,VALID,210,VALID,1.3768,
2000-02-26, 03:17:00,VALID,0,VALID,83.5927,VALID,-0.0509425,VALID,18.3633,VALID,210,VALID,1.37562,
2000-02-26, 03:18:00,VALID,0,VALID,83.3613,VALID,-0.0509425,VALID,18.3377,VALID,199,VALID,1.33173,
2000-02-26, 03:19:00,VALID,0,VALID,83.636,VALID,-0.0509425,VALID,18.3246,VALID,202,VALID,1.2893,
2000-02-26, 03:20:00,VALID,0,VALID,83.8216,VALID,-0.0339617,VALID,18.2994,VALID,198,VALID,1.03646,
2000-02-26, 03:21:00,VALID,0,VALID,83.561,VALID,-0.0849042,VALID,18.2803,VALID,206,VALID,1.378,
2000-02-26, 03:22:00,VALID,0,VALID,83.7504,VALID,-0.0679233,VALID,18.2729,VALID,211,VALID,0.917863,
2000-02-26, 03:23:00,VALID,0,VALID,83.753,VALID,-0.0509425,VALID,18.2768,VALID,208,VALID,1.23301,
2000-02-26, 03:24:00,VALID,0,VALID,83.6957,VALID,-0.0339617,VALID,18.2542,VALID,207,VALID,1.31489,
2000-02-26, 03:25:01,VALID,0,VALID,83.8967,VALID,-0.0169808,VALID,18.2374,VALID,211,VALID,1.06209,
2000-02-26, 03:26:00,VALID,0,VALID,83.9602,VALID,0.0339617,VALID,18.227,VALID,196,VALID,1.12143,
2000-02-26, 03:27:00,VALID,0,VALID,83.4491,VALID,0.0509425,VALID,18.2042,VALID,196,VALID,0.920508,
2000-02-26, 03:28:00,VALID,0,VALID,83.9831,VALID,0.0849042,VALID,18.1975,VALID,199,VALID,1.12592,
2000-02-26, 03:29:00,VALID,0,VALID,83.566,VALID,0.0679233,VALID,18.1945,VALID,196,VALID,1.28125,
2000-02-26, 03:30:00,VALID,0,VALID,83.4948,VALID,0.0169808,VALID,18.2044,VALID,191,VALID,1.43421,
2000-02-26, 03:31:00,VALID,0,VALID,83.299,VALID,0.0339617,VALID,18.2072,VALID,195,VALID,1.15805,
2000-02-26, 03:32:00,VALID,0,VALID,83.7428,VALID,0.0339617,VALID,18.227,VALID,205,VALID,0.663462,
2000-02-26, 03:33:00,VALID,0,VALID,83.3906,VALID,0.0169808,VALID,18.2236,VALID,208,VALID,0.955659,
2000-02-26, 03:34:00,VALID,0,VALID,83.6334,VALID,0.0339617,VALID,18.2305,VALID,205,VALID,0.901172,
2000-02-26, 03:35:00,VALID,0,VALID,83.7466,VALID,0.0849042,VALID,18.2111,VALID,203,VALID,0.932492,
2000-02-26, 03:36:00,VALID,0,VALID,83.9462,VALID,0.0679233,VALID,18.201,VALID,197,VALID,0.897636,
2000-02-26, 03:37:00,VALID,0,VALID,84.3163,VALID,0.0509425,VALID,18.1848,VALID,205,VALID,1.16291,
2000-02-26, 03:38:00,VALID,0,VALID,84.6583,VALID,0.0169808,VALID,18.1818,VALID,200,VALID,0.91059,
2000-02-26, 03:39:00,VALID,0,VALID,84.8936,VALID,0.0169808,VALID,18.1724,VALID,196,VALID,1.09158,
2000-02-26, 03:40:00,VALID,0,VALID,85.1466,VALID,0.0849042,VALID,18.1532,VALID,199,VALID,1.15084,
2000-02-26, 03:41:00,VALID,0,VALID,85.3704,VALID,0.0169808,VALID,18.1299,VALID,188,VALID,1.09075,
2000-02-26, 03:42:00,VALID,0,VALID,85.6438,VALID,0.0679233,VALID,18.1177,VALID,200,VALID,0.934333,
2000-02-26, 03:43:00,VALID,0,VALID,86.1321,VALID,0.0679233,VALID,18.0723,VALID,215,VALID,0.932692,
2000-02-26, 03:44:00,VALID,0,VALID,86.2173,VALID,0.0509425,VALID,18.0333,VALID,200,VALID,1.1361,
2000-02-26, 03:45:00,VALID,0,VALID,86.5937,VALID,0.0339617,VALID,18.0305,VALID,211,VALID,0.686699,
2000-02-26, 03:46:00,VALID,0,VALID,86.8035,VALID,0.0679233,VALID,17.9784,VALID,204,VALID,0.928977,
2000-02-26, 03:47:01,VALID,0,VALID,86.843,VALID,0.0339617,VALID,17.9431,VALID,206,VALID,0.931858,
2000-02-26, 03:48:01,VALID,0,VALID,86.8404,VALID,0.0849042,VALID,17.933,VALID,211,VALID,1.09415,
2000-02-26, 03:49:00,VALID,0,VALID,86.7616,VALID,0.0509425,VALID,17.9692,VALID,213,VALID,1.40857,
2000-02-26, 03:50:00,VALID,0,VALID,86.7145,VALID,0.0509425,VALID,18.004,VALID,216,VALID,1.53711,
2000-02-26, 03:51:00,VALID,0,VALID,86.4462,VALID,0.0509425,VALID,18.0566,VALID,223,VALID,1.49002,
2000-02-26, 03:52:00,VALID,0,VALID,86.5759,VALID,0.0339617,VALID,18.0919,VALID,210,VALID,1.34375,
2000-02-26, 03:53:00,VALID,0,VALID,86.7997,VALID,0.0509425,VALID,18.0686,VALID,216,VALID,1.44531,
2000-02-26, 03:54:00,VALID,0,VALID,86.8099,VALID,0.0679233,VALID,18.0594,VALID,209,VALID,1.53398,
2000-02-26, 03:55:00,VALID,0,VALID,86.8239,VALID,0.0339617,VALID,18.0594,VALID,217,VALID,1.1682,
2000-02-26, 03:56:00,VALID,0,VALID,86.951,VALID,-0.0509425,VALID,18.057,VALID,207,VALID,0.878472,
2000-02-26, 03:57:00,VALID,0,VALID,87.2372,VALID,-0.0509425,VALID,18.0317,VALID,207,VALID,0.905016,
2000-02-26, 03:58:00,VALID,0,VALID,87.6301,VALID,-0.0509425,VALID,17.9701,VALID,206,VALID,0.874399,
2000-02-26, 03:59:00,VALID,0,VALID,87.859,VALID,-0.0679233,VALID,17.9253,VALID,205,VALID,0.914063,
2000-02-26, 04:00:00,VALID,0,VALID,88.1413,VALID,-0.0509425,VALID,17.89,VALID,200,VALID,0.897382,
2000-02-26, 04:01:00,VALID,0,VALID,88.2252,VALID,-0.0339617,VALID,17.8568,VALID,194,VALID,1.01895,
2000-02-26, 04:02:00,VALID,0,VALID,88.4134,VALID,-0.0509425,VALID,17.8381,VALID,204,VALID,0.603365,
2000-02-26, 04:03:00,VALID,0,VALID,88.566,VALID,-0.0849042,VALID,17.8188,VALID,176,VALID,0.842348,
2000-02-26, 04:04:00,VALID,0,VALID,88.4121,VALID,-0.101885,VALID,17.7796,VALID,162,VALID,1.05101,
2000-02-26, 04:05:00,VALID,0,VALID,88.4083,VALID,-0.0339617,VALID,17.7925,VALID,169,VALID,0.977648,